| time (UTC) | temp C | wind direction | speed KPH | gust KPH | rain 1hr cm | rain 24hr cm | rain mn cm | humidity % | barometer mb |
| 20260505223936 | 25 | 198 | 11.3 | 12.9 | 0.00 | 0.00 | 0.00 | 35 | 1014.2 |
| 20260505223433 | 25 | 215 | 3.2 | 9.7 | 0.00 | 0.00 | 0.00 | 36 | 1014.0 |
| 20260505222929 | 25 | 144 | 9.7 | 14.5 | 0.00 | 0.00 | 0.00 | 35 | 1014.1 |
| 20260505222426 | 25 | 105 | 6.4 | 6.4 | 0.00 | 0.00 | 0.00 | 35 | 1013.9 |
| 20260505221922 | 25 | 160 | 8.0 | 12.9 | 0.00 | 0.00 | 0.00 | 35 | 1014.2 |
| 20260505221419 | 26 | 158 | 9.7 | 16.1 | 0.00 | 0.00 | 0.00 | 34 | 1014.0 |
| 20260505220916 | 26 | 266 | 6.4 | 6.4 | 0.00 | 0.00 | 0.00 | 34 | 1014.1 |
| 20260505220413 | 25 | 231 | 6.4 | 12.9 | 0.00 | 0.00 | 0.00 | 34 | 1014.0 |
| 20260505215911 | 25 | 214 | 8.0 | 16.1 | 0.00 | 0.00 | 0.00 | 33 | 1013.7 |
| 20260505215409 | 26 | 171 | 6.4 | 17.7 | 0.00 | 0.00 | 0.00 | 33 | 1014.0 |
| 20260505214906 | 26 | 234 | 11.3 | 14.5 | 0.00 | 0.00 | 0.00 | 33 | 1014.1 |
| 20260505214404 | 26 | 206 | 11.3 | 17.7 | 0.00 | 0.00 | 0.00 | 31 | 1014.1 |
| 20260505213901 | 26 | 222 | 4.8 | 16.1 | 0.00 | 0.00 | 0.00 | 33 | 1013.9 |
| 20260505213359 | 26 | 185 | 3.2 | 12.9 | 0.00 | 0.00 | 0.00 | 34 | 1014.0 |
| 20260505212854 | 26 | 243 | 3.2 | 11.3 | 0.00 | 0.00 | 0.00 | 34 | 1014.2 |
| 20260505212352 | 26 | 225 | 14.5 | 16.1 | 0.00 | 0.00 | 0.00 | 32 | 1014.2 |
| 20260505211848 | 25 | 182 | 4.8 | 20.9 | 0.00 | 0.00 | 0.00 | 33 | 1014.1 |
| 20260505211346 | 26 | 242 | 6.4 | 17.7 | 0.00 | 0.00 | 0.00 | 33 | 1014.3 |
| 20260505210842 | 26 | 185 | 6.4 | 11.3 | 0.00 | 0.00 | 0.00 | 32 | 1014.1 |
| 20260505210339 | 26 | 158 | 9.7 | 14.5 | 0.00 | 0.00 | 0.00 | 32 | 1014.3 |
| 20260505205835 | 26 | 187 | 6.4 | 11.3 | 0.00 | 0.00 | 0.00 | 31 | 1014.3 |
| 20260505205334 | 26 | 156 | 9.7 | 12.9 | 0.00 | 0.00 | 0.00 | 31 | 1014.2 |
| 20260505204830 | 26 | 187 | 9.7 | 17.7 | 0.00 | 0.00 | 0.00 | 32 | 1014.4 |
| 20260505204328 | 26 | 150 | 6.4 | 22.5 | 0.00 | 0.00 | 0.00 | 34 | 1014.5 |
| 20260505203826 | 26 | 152 | 9.7 | 12.9 | 0.00 | 0.00 | 0.00 | 33 | 1014.5 |
| 20260505203322 | 25 | 204 | 6.4 | 11.3 | 0.00 | 0.00 | 0.00 | 35 | 1014.5 |
| 20260505202818 | 26 | 186 | 14.5 | 17.7 | 0.00 | 0.00 | 0.00 | 33 | 1014.6 |
| 20260505202314 | 26 | 177 | 8.0 | 11.3 | 0.00 | 0.00 | 0.00 | 34 | 1014.5 |
| 20260505201811 | 25 | 221 | 1.6 | 9.7 | 0.00 | 0.00 | 0.00 | 35 | 1014.6 |
| 20260505201309 | 25 | 141 | 8.0 | 12.9 | 0.00 | 0.00 | 0.00 | 36 | 1014.5 |
| 20260505200807 | 25 | 163 | 8.0 | 11.3 | 0.00 | 0.00 | 0.00 | 34 | 1014.8 |
| 20260505200303 | 26 | 221 | 8.0 | 9.7 | 0.00 | 0.00 | 0.00 | 34 | 1014.9 |
| 20260505195758 | 25 | 216 | 6.4 | 9.7 | 0.00 | 0.00 | 0.00 | 34 | 1014.6 |
| 20260505195257 | 25 | 202 | 1.6 | 12.9 | 0.00 | 0.00 | 0.00 | 34 | 1014.8 |
| 20260505194753 | 25 | 203 | 11.3 | 12.9 | 0.00 | 0.00 | 0.00 | 32 | 1015.2 |
| 20260505194250 | 25 | 250 | 11.3 | 17.7 | 0.00 | 0.00 | 0.00 | 32 | 1015.0 |
| 20260505193746 | 25 | 205 | 6.4 | 11.3 | 0.00 | 0.00 | 0.00 | 34 | 1015.2 |
| 20260505193244 | 25 | 187 | 8.0 | 14.5 | 0.00 | 0.00 | 0.00 | 32 | 1015.3 |
| 20260505192742 | 25 | 190 | 6.4 | 16.1 | 0.00 | 0.00 | 0.00 | 35 | 1015.3 |
| 20260505192239 | 25 | 170 | 9.7 | 12.9 | 0.00 | 0.00 | 0.00 | 34 | 1015.3 |
| 20260505191737 | 25 | 155 | 9.7 | 12.9 | 0.00 | 0.00 | 0.00 | 36 | 1015.6 |
| 20260505191235 | 25 | 156 | 11.3 | 16.1 | 0.00 | 0.00 | 0.00 | 35 | 1015.7 |
| 20260505190731 | 25 | 263 | 6.4 | 9.7 | 0.00 | 0.00 | 0.00 | 34 | 1015.5 |
| 20260505190231 | 25 | 185 | 11.3 | 14.5 | 0.00 | 0.00 | 0.00 | 34 | 1015.7 |
| 20260505185728 | 25 | 87 | 4.8 | 4.8 | 0.00 | 0.00 | 0.00 | 35 | 1015.9 |
| 20260505185225 | 25 | 244 | 4.8 | 17.7 | 0.00 | 0.00 | 0.00 | 35 | 1015.9 |
| 20260505184720 | 25 | 208 | 12.9 | 14.5 | 0.00 | 0.00 | 0.00 | 34 | 1015.9 |
| 20260505184218 | 25 | 213 | 8.0 | 11.3 | 0.00 | 0.00 | 0.00 | 34 | 1016.0 |
| 20260505183715 | 25 | 199 | 6.4 | 11.3 | 0.00 | 0.00 | 0.00 | 34 | 1016.1 |
| 20260505183212 | 25 | 259 | 14.5 | 20.9 | 0.00 | 0.00 | 0.00 | 35 | 1016.2 |
| 20260505182708 | 25 | 225 | 8.0 | 16.1 | 0.00 | 0.00 | 0.00 | 34 | 1016.3 |
| 20260505182206 | 25 | 196 | 12.9 | 16.1 | 0.00 | 0.00 | 0.00 | 33 | 1016.0 |
| 20260505181702 | 25 | 205 | 6.4 | 11.3 | 0.00 | 0.00 | 0.00 | 33 | 1016.2 |
| 20260505181200 | 25 | 248 | 12.9 | 22.5 | 0.00 | 0.00 | 0.00 | 34 | 1016.1 |
| 20260505180655 | 25 | 225 | 6.4 | 14.5 | 0.00 | 0.00 | 0.00 | 36 | 1016.2 |
| 20260505180153 | 25 | 126 | 6.4 | 14.5 | 0.00 | 0.00 | 0.00 | 36 | 1016.3 |
| 20260505175649 | 25 | 146 | 12.9 | 17.7 | 0.00 | 0.00 | 0.00 | 35 | 1016.5 |
| 20260505175145 | 24 | 206 | 4.8 | 12.9 | 0.00 | 0.00 | 0.00 | 35 | 1016.5 |
| 20260505174642 | 25 | 241 | 9.7 | 16.1 | 0.00 | 0.00 | 0.00 | 35 | 1016.6 |
| 20260505174138 | 25 | 172 | 14.5 | 20.9 | 0.00 | 0.00 | 0.00 | 32 | 1016.8 |
| 20260505173635 | 25 | 165 | 8.0 | 14.5 | 0.00 | 0.00 | 0.00 | 36 | 1016.9 |
| 20260505173132 | 24 | 248 | 4.8 | 9.7 | 0.00 | 0.00 | 0.00 | 37 | 1016.7 |
| 20260505172629 | 25 | 207 | 4.8 | 11.3 | 0.00 | 0.00 | 0.00 | 39 | 1017.0 |
| 20260505172126 | 25 | 144 | 6.4 | 17.7 | 0.00 | 0.00 | 0.00 | 38 | 1017.0 |
| 20260505171620 | 24 | 168 | 0.0 | 9.7 | 0.00 | 0.00 | 0.00 | 37 | 1017.0 |
| 20260505171118 | 24 | 232 | 6.4 | 11.3 | 0.00 | 0.00 | 0.00 | 36 | 1017.0 |
| 20260505170615 | 24 | 185 | 6.4 | 14.5 | 0.00 | 0.00 | 0.00 | 35 | 1017.1 |
| 20260505170111 | 24 | 184 | 3.2 | 9.7 | 0.00 | 0.00 | 0.00 | 33 | 1017.2 |
| 20260505165606 | 24 | 161 | 4.8 | 17.7 | 0.00 | 0.00 | 0.00 | 35 | 1017.0 |
| 20260505165102 | 24 | 185 | 3.2 | 14.5 | 0.00 | 0.00 | 0.00 | 34 | 1017.1 |
| 20260505164558 | 24 | 167 | 4.8 | 11.3 | 0.00 | 0.00 | 0.00 | 36 | 1017.1 |
| 20260505164056 | 23 | 280 | 3.2 | 9.7 | 0.00 | 0.00 | 0.00 | 36 | 1017.1 |
| 20260505163555 | 24 | 343 | 8.0 | 9.7 | 0.00 | 0.00 | 0.00 | 35 | 1017.0 |
| 20260505163051 | 24 | 268 | 9.7 | 12.9 | 0.00 | 0.00 | 0.00 | 35 | 1017.0 |
| 20260505162549 | 23 | 197 | 1.6 | 3.2 | 0.00 | 0.00 | 0.00 | 39 | 1017.2 |
| 20260505162047 | 23 | 191 | 3.2 | 11.3 | 0.00 | 0.00 | 0.00 | 40 | 1017.2 |
| 20260505161543 | 23 | 181 | 4.8 | 9.7 | 0.00 | 0.00 | 0.00 | 43 | 1017.1 |
| 20260505161041 | 22 | 110 | 3.2 | 6.4 | 0.00 | 0.00 | 0.00 | 45 | 1017.1 |
| 20260505160538 | 22 | 43 | 6.4 | 11.3 | 0.00 | 0.00 | 0.00 | 46 | 1017.4 |
| 20260505153015 | 21 | 191 | 1.6 | 4.8 | 0.00 | 0.00 | 0.00 | 48 | 1017.9 |
| 20260505152512 | 21 | 180 | 3.2 | 3.2 | 0.00 | 0.00 | 0.00 | 50 | 1017.4 |
| 20260505152008 | 21 | 67 | 1.6 | 3.2 | 0.00 | 0.00 | 0.00 | 50 | 1017.7 |
| 20260505151503 | 21 | 220 | 0.0 | 1.6 | 0.00 | 0.00 | 0.00 | 51 | 1017.8 |
| 20260505151000 | 20 | 70 | 1.6 | 3.2 | 0.00 | 0.00 | 0.00 | 55 | 1017.7 |
| 20260505150457 | 20 | 151 | 0.0 | 3.2 | 0.00 | 0.00 | 0.00 | 55 | 1017.7 |
| 20260505140427 | 17 | 139 | 0.0 | 1.6 | 0.00 | 0.00 | 0.00 | 63 | 1017.6 |
| 20260505124840 | 15 | 118 | 0.0 | 1.6 | 0.00 | 0.00 | 0.00 | 71 | 1017.2 |
| 20260505124337 | 15 | 118 | 1.6 | 1.6 | 0.00 | 0.00 | 0.00 | 73 | 1017.2 |
| 20260505123833 | 14 | 152 | 0.0 | 1.6 | 0.00 | 0.00 | 0.00 | 78 | 1017.1 |
| 20260505123330 | 13 | 124 | 0.0 | 0.0 | 0.00 | 0.00 | 0.00 | 78 | 1017.0 |
| 20260505122826 | 13 | 124 | 0.0 | 1.6 | 0.00 | 0.00 | 0.00 | 82 | 1017.2 |
| 20260505122324 | 13 | 124 | 0.0 | 0.0 | 0.00 | 0.00 | 0.00 | 79 | 1017.1 |
| 20260505121820 | 12 | 124 | 0.0 | 1.6 | 0.00 | 0.00 | 0.00 | 80 | 1017.1 |
| 20260505121317 | 11 | 124 | 0.0 | 0.0 | 0.00 | 0.00 | 0.00 | 87 | 1017.2 |
| 20260505120813 | 11 | 124 | 0.0 | 1.6 | 0.00 | 0.00 | 0.00 | 88 | 1017.1 |
| 20260505120309 | 11 | 123 | 0.0 | 0.0 | 0.00 | 0.00 | 0.00 | 90 | 1016.8 |
| 20260505115808 | 10 | 124 | 0.0 | 0.0 | 0.00 | 0.00 | 0.00 | 93 | 1016.8 |
| 20260505115306 | 10 | 124 | 0.0 | 0.0 | 0.00 | 0.00 | 0.00 | 94 | 1016.6 |
| 20260505114803 | 10 | 123 | 0.0 | 0.0 | 0.00 | 0.00 | 0.00 | 95 | 1016.7 |
| 20260505114300 | 10 | 123 | 0.0 | 0.0 | 0.00 | 0.00 | 0.00 | 96 | 1016.6 |
| 20260505113756 | 10 | 123 | 0.0 | 0.0 | 0.00 | 0.00 | 0.00 | 96 | 1016.2 |
| 20260505113252 | 9 | 123 | 0.0 | 0.0 | 0.00 | 0.00 | 0.00 | 97 | 1016.5 |
| 20260505112748 | 8 | 123 | 0.0 | 0.0 | 0.00 | 0.00 | 0.00 | 97 | 1016.5 |
| 20260505112246 | 8 | 122 | 1.6 | 1.6 | 0.00 | 0.00 | 0.00 | 97 | 1016.2 |
| 20260505111747 | 8 | 121 | 0.0 | 1.6 | 0.00 | 0.00 | 0.00 | 97 | 1016.3 |
| 20260505111243 | 7 | 122 | 0.0 | 1.6 | 0.00 | 0.00 | 0.00 | 97 | 1016.2 |
| 20260505110738 | 7 | 132 | 0.0 | 1.6 | 0.00 | 0.00 | 0.00 | 97 | 1016.3 |
| 20260505110237 | 7 | 146 | 0.0 | 0.0 | 0.00 | 0.00 | 0.00 | 97 | 1016.1 |
| 20260505102212 | 7 | 178 | 0.0 | 1.6 | 0.00 | 0.00 | 0.00 | 97 | 1016.3 |
| 20260505101711 | 7 | 103 | 0.0 | 0.0 | 0.00 | 0.00 | 0.00 | 97 | 1016.1 |
| 20260505101206 | 7 | 98 | 0.0 | 1.6 | 0.00 | 0.00 | 0.00 | 97 | 1016.3 |
| 20260505100703 | 8 | 130 | 0.0 | 1.6 | 0.00 | 0.00 | 0.00 | 97 | 1016.0 |
| 20260505100200 | 8 | 151 | 1.6 | 1.6 | 0.00 | 0.00 | 0.00 | 97 | 1015.8 |
| 20260505095655 | 8 | 152 | 0.0 | 0.0 | 0.00 | 0.00 | 0.00 | 97 | 1016.0 |
| 20260505095153 | 8 | 152 | 0.0 | 0.0 | 0.00 | 0.00 | 0.00 | 97 | 1016.1 |
| 20260505094649 | 8 | 152 | 0.0 | 0.0 | 0.00 | 0.00 | 0.00 | 97 | 1016.1 |
| 20260505094145 | 8 | 152 | 0.0 | 0.0 | 0.00 | 0.00 | 0.00 | 97 | 1016.0 |
| 20260505093642 | 8 | 152 | 0.0 | 1.6 | 0.00 | 0.00 | 0.00 | 97 | 1016.1 |
| 20260505093139 | 8 | 152 | 0.0 | 1.6 | 0.00 | 0.00 | 0.00 | 97 | 1015.9 |
| 20260505092636 | 8 | 152 | 0.0 | 0.0 | 0.00 | 0.00 | 0.00 | 97 | 1015.9 |
| 20260505092135 | 8 | 152 | 0.0 | 0.0 | 0.00 | 0.00 | 0.00 | 97 | 1016.0 |
| 20260505091631 | 8 | 152 | 0.0 | 0.0 | 0.00 | 0.00 | 0.00 | 97 | 1015.8 |
| 20260505091130 | 8 | 152 | 0.0 | 0.0 | 0.00 | 0.00 | 0.00 | 97 | 1016.0 |
| 20260505090627 | 8 | 152 | 0.0 | 0.0 | 0.00 | 0.00 | 0.00 | 97 | 1015.9 |
| 20260505090125 | 8 | 152 | 1.6 | 1.6 | 0.00 | 0.00 | 0.00 | 97 | 1016.1 |
| 20260505085622 | 8 | 152 | 0.0 | 1.6 | 0.00 | 0.00 | 0.00 | 97 | 1015.9 |
| 20260505085120 | 8 | 137 | 1.6 | 1.6 | 0.00 | 0.00 | 0.00 | 97 | 1015.9 |
| 20260505084618 | 8 | 137 | 0.0 | 1.6 | 0.00 | 0.00 | 0.00 | 97 | 1015.8 |
| 20260505084116 | 8 | 137 | 0.0 | 1.6 | 0.00 | 0.00 | 0.00 | 97 | 1015.9 |
| 20260505083613 | 8 | 137 | 0.0 | 0.0 | 0.00 | 0.00 | 0.00 | 97 | 1015.9 |
| 20260505083109 | 8 | 137 | 0.0 | 0.0 | 0.00 | 0.00 | 0.00 | 97 | 1016.1 |
| 20260505082605 | 8 | 137 | 0.0 | 0.0 | 0.00 | 0.00 | 0.00 | 97 | 1015.7 |
| 20260505082103 | 8 | 137 | 0.0 | 0.0 | 0.00 | 0.00 | 0.00 | 97 | 1015.8 |
| 20260505081559 | 8 | 137 | 0.0 | 0.0 | 0.00 | 0.00 | 0.00 | 97 | 1015.6 |
| 20260505081056 | 8 | 137 | 0.0 | 0.0 | 0.00 | 0.00 | 0.00 | 97 | 1015.7 |
| 20260505080552 | 8 | 137 | 0.0 | 0.0 | 0.00 | 0.00 | 0.00 | 97 | 1015.7 |
| 20260505080049 | 8 | 137 | 0.0 | 0.0 | 0.00 | 0.00 | 0.00 | 96 | 1015.8 |
| 20260505075544 | 8 | 137 | 0.0 | 0.0 | 0.00 | 0.00 | 0.00 | 96 | 1015.9 |
| 20260505075042 | 8 | 137 | 0.0 | 0.0 | 0.00 | 0.00 | 0.00 | 96 | 1015.6 |
| 20260505074538 | 8 | 137 | 0.0 | 0.0 | 0.00 | 0.00 | 0.00 | 96 | 1015.7 |
| 20260505074036 | 8 | 137 | 0.0 | 0.0 | 0.00 | 0.00 | 0.00 | 96 | 1015.6 |
| 20260505073533 | 8 | 137 | 0.0 | 0.0 | 0.00 | 0.00 | 0.00 | 96 | 1015.5 |
| 20260505073032 | 8 | 137 | 0.0 | 0.0 | 0.00 | 0.00 | 0.00 | 96 | 1015.6 |
| 20260505072527 | 9 | 137 | 0.0 | 0.0 | 0.00 | 0.00 | 0.00 | 96 | 1015.6 |
| 20260505072023 | 9 | 137 | 0.0 | 0.0 | 0.00 | 0.00 | 0.00 | 96 | 1015.7 |
| 20260505071519 | 9 | 137 | 0.0 | 0.0 | 0.00 | 0.00 | 0.00 | 96 | 1015.6 |
| 20260505071017 | 9 | 137 | 0.0 | 0.0 | 0.00 | 0.00 | 0.00 | 96 | 1015.6 |
| 20260505070514 | 9 | 137 | 0.0 | 0.0 | 0.00 | 0.00 | 0.00 | 96 | 1015.6 |
| 20260505070010 | 9 | 137 | 0.0 | 0.0 | 0.00 | 0.00 | 0.00 | 96 | 1015.7 |
| 20260505065506 | 9 | 137 | 0.0 | 0.0 | 0.00 | 0.00 | 0.00 | 96 | 1015.6 |
| 20260505065003 | 9 | 137 | 0.0 | 0.0 | 0.00 | 0.00 | 0.00 | 96 | 1015.7 |
| 20260505064500 | 9 | 137 | 0.0 | 0.0 | 0.00 | 0.00 | 0.00 | 96 | 1015.8 |
| 20260505063958 | 9 | 137 | 0.0 | 0.0 | 0.00 | 0.00 | 0.00 | 96 | 1015.7 |
| 20260505063455 | 9 | 137 | 0.0 | 0.0 | 0.00 | 0.00 | 0.00 | 96 | 1015.8 |
| 20260505062951 | 10 | 137 | 0.0 | 0.0 | 0.00 | 0.00 | 0.00 | 96 | 1015.9 |
| 20260505062448 | 10 | 137 | 0.0 | 0.0 | 0.00 | 0.00 | 0.00 | 95 | 1016.1 |
| 20260505061944 | 10 | 137 | 0.0 | 0.0 | 0.00 | 0.00 | 0.00 | 95 | 1016.0 |
| 20260505061443 | 10 | 137 | 0.0 | 0.0 | 0.00 | 0.00 | 0.00 | 95 | 1016.0 |
| 20260505060940 | 10 | 137 | 0.0 | 0.0 | 0.00 | 0.00 | 0.00 | 95 | 1016.1 |
| 20260505060437 | 10 | 137 | 0.0 | 0.0 | 0.00 | 0.00 | 0.00 | 95 | 1016.0 |
| 20260505055933 | 10 | 137 | 0.0 | 0.0 | 0.00 | 0.00 | 0.00 | 95 | 1016.1 |
| 20260505055429 | 10 | 137 | 0.0 | 0.0 | 0.00 | 0.00 | 0.00 | 95 | 1016.1 |
| 20260505054926 | 10 | 137 | 0.0 | 0.0 | 0.00 | 0.00 | 0.00 | 94 | 1016.1 |
| 20260505054424 | 10 | 137 | 0.0 | 0.0 | 0.00 | 0.00 | 0.00 | 94 | 1016.0 |
| 20260505053922 | 10 | 137 | 0.0 | 0.0 | 0.00 | 0.00 | 0.00 | 94 | 1016.0 |
| 20260505053418 | 10 | 137 | 0.0 | 0.0 | 0.00 | 0.00 | 0.00 | 94 | 1016.0 |
| 20260505052915 | 10 | 137 | 0.0 | 0.0 | 0.00 | 0.00 | 0.00 | 94 | 1016.1 |
| 20260505052412 | 10 | 137 | 0.0 | 0.0 | 0.00 | 0.00 | 0.00 | 94 | 1015.9 |
| 20260505051909 | 11 | 137 | 0.0 | 0.0 | 0.00 | 0.00 | 0.00 | 94 | 1015.9 |
| 20260505051407 | 11 | 137 | 0.0 | 0.0 | 0.00 | 0.00 | 0.00 | 94 | 1016.0 |
| 20260505050905 | 11 | 137 | 0.0 | 0.0 | 0.00 | 0.00 | 0.00 | 94 | 1016.0 |
| 20260505050403 | 11 | 137 | 1.6 | 1.6 | 0.00 | 0.00 | 0.00 | 93 | 1015.9 |
| 20260505041330 | 11 | 178 | 0.0 | 0.0 | 0.00 | 0.00 | 0.00 | 90 | 1016.0 |
| 20260505040827 | 11 | 178 | 0.0 | 0.0 | 0.00 | 0.00 | 0.00 | 89 | 1016.0 |
| 20260505040325 | 11 | 178 | 0.0 | 0.0 | 0.00 | 0.00 | 0.00 | 89 | 1016.0 |
| 20260505035821 | 11 | 178 | 0.0 | 0.0 | 0.00 | 0.00 | 0.00 | 88 | 1016.1 |
| 20260505035317 | 12 | 178 | 0.0 | 0.0 | 0.00 | 0.00 | 0.00 | 88 | 1015.9 |
| 20260505034815 | 12 | 178 | 0.0 | 0.0 | 0.00 | 0.00 | 0.00 | 86 | 1016.1 |
| 20260505034311 | 12 | 178 | 0.0 | 0.0 | 0.00 | 0.00 | 0.00 | 85 | 1016.0 |
| 20260505033808 | 13 | 178 | 0.0 | 0.0 | 0.00 | 0.00 | 0.00 | 84 | 1016.2 |
| 20260505033305 | 13 | 178 | 0.0 | 0.0 | 0.00 | 0.00 | 0.00 | 83 | 1016.3 |
| 20260505032804 | 13 | 178 | 0.0 | 0.0 | 0.00 | 0.00 | 0.00 | 82 | 1016.1 |
| 20260505032259 | 13 | 178 | 0.0 | 0.0 | 0.00 | 0.00 | 0.00 | 81 | 1016.2 |
| 20260505031756 | 13 | 178 | 0.0 | 0.0 | 0.00 | 0.00 | 0.00 | 78 | 1016.1 |
| 20260505031253 | 14 | 178 | 0.0 | 0.0 | 0.00 | 0.00 | 0.00 | 65 | 1016.3 |
| 20260505030750 | 15 | 178 | 0.0 | 0.0 | 0.00 | 0.00 | 0.00 | 64 | 1015.9 |
| 20260505030246 | 15 | 179 | 0.0 | 0.0 | 0.00 | 0.00 | 0.00 | 60 | 1015.9 |
| 20260505025742 | 16 | 179 | 0.0 | 0.0 | 0.00 | 0.00 | 0.00 | 56 | 1016.0 |
| 20260505025240 | 16 | 179 | 0.0 | 0.0 | 0.00 | 0.00 | 0.00 | 55 | 1016.2 |
| 20260505024738 | 17 | 179 | 0.0 | 1.6 | 0.00 | 0.00 | 0.00 | 53 | 1016.1 |
| 20260505024235 | 17 | 178 | 1.6 | 1.6 | 0.00 | 0.00 | 0.00 | 52 | 1016.1 |
| 20260505023732 | 17 | 179 | 0.0 | 1.6 | 0.00 | 0.00 | 0.00 | 51 | 1015.9 |
| 20260505023229 | 17 | 196 | 1.6 | 3.2 | 0.00 | 0.00 | 0.00 | 51 | 1016.2 |
| 20260505022727 | 17 | 210 | 0.0 | 3.2 | 0.00 | 0.00 | 0.00 | 51 | 1016.0 |
| 20260505022224 | 18 | 181 | 1.6 | 3.2 | 0.00 | 0.00 | 0.00 | 51 | 1016.0 |
| 20260505021720 | 18 | 186 | 1.6 | 3.2 | 0.00 | 0.00 | 0.00 | 50 | 1015.8 |
| 20260505021217 | 18 | 183 | 1.6 | 3.2 | 0.00 | 0.00 | 0.00 | 50 | 1015.8 |
| 20260505020713 | 18 | 177 | 0.0 | 1.6 | 0.00 | 0.00 | 0.00 | 50 | 1015.8 |
| 20260505020208 | 18 | 170 | 1.6 | 4.8 | 0.00 | 0.00 | 0.00 | 50 | 1015.9 |
| 20260505015706 | 18 | 192 | 1.6 | 3.2 | 0.00 | 0.00 | 0.00 | 51 | 1015.9 |
| 20260505015203 | 17 | 208 | 3.2 | 3.2 | 0.00 | 0.00 | 0.00 | 51 | 1015.7 |
| 20260505014700 | 17 | 197 | 1.6 | 3.2 | 0.00 | 0.00 | 0.00 | 51 | 1015.4 |
| 20260505014157 | 18 | 188 | 0.0 | 1.6 | 0.00 | 0.00 | 0.00 | 51 | 1015.7 |
| 20260505013654 | 18 | 185 | 0.0 | 3.2 | 0.00 | 0.00 | 0.00 | 50 | 1015.7 |
| 20260505013151 | 18 | 166 | 1.6 | 1.6 | 0.00 | 0.00 | 0.00 | 49 | 1015.6 |
| 20260505012649 | 18 | 160 | 0.0 | 1.6 | 0.00 | 0.00 | 0.00 | 50 | 1015.5 |
| 20260505012146 | 18 | 176 | 0.0 | 1.6 | 0.00 | 0.00 | 0.00 | 50 | 1015.5 |
| 20260505011642 | 18 | 169 | 0.0 | 1.6 | 0.00 | 0.00 | 0.00 | 50 | 1015.4 |
| 20260505011139 | 18 | 169 | 0.0 | 1.6 | 0.00 | 0.00 | 0.00 | 50 | 1015.3 |
| 20260505010639 | 18 | 165 | 0.0 | 3.2 | 0.00 | 0.00 | 0.00 | 51 | 1015.2 |
| 20260505010137 | 18 | 182 | 0.0 | 1.6 | 0.00 | 0.00 | 0.00 | 50 | 1015.5 |
| 20260505005632 | 18 | 182 | 0.0 | 0.0 | 0.00 | 0.00 | 0.00 | 49 | 1015.4 |
| 20260505005130 | 18 | 182 | 0.0 | 1.6 | 0.00 | 0.00 | 0.00 | 47 | 1015.2 |
| 20260505004627 | 19 | 182 | 0.0 | 1.6 | 0.00 | 0.00 | 0.00 | 47 | 1015.0 |
| 20260505004123 | 19 | 183 | 0.0 | 0.0 | 0.00 | 0.00 | 0.00 | 46 | 1015.1 |
| 20260505003621 | 20 | 183 | 0.0 | 1.6 | 0.00 | 0.00 | 0.00 | 45 | 1015.0 |
| 20260505003118 | 20 | 183 | 0.0 | 0.0 | 0.00 | 0.00 | 0.00 | 46 | 1014.9 |
| 20260505002614 | 20 | 182 | 0.0 | 0.0 | 0.00 | 0.00 | 0.00 | 44 | 1015.1 |
| 20260505002112 | 21 | 183 | 0.0 | 1.6 | 0.00 | 0.00 | 0.00 | 43 | 1014.9 |
| 20260505001609 | 21 | 189 | 0.0 | 1.6 | 0.00 | 0.00 | 0.00 | 43 | 1015.1 |
| 20260505001107 | 21 | 185 | 1.6 | 4.8 | 0.00 | 0.00 | 0.00 | 43 | 1014.9 |
| 20260505000603 | 21 | 173 | 0.0 | 1.6 | 0.00 | 0.00 | 0.00 | 42 | 1015.0 |
| 20260504235558 | 21 | 190 | 3.2 | 3.2 | 0.00 | 0.00 | 0.00 | 41 | 1015.0 |
| 20260504235054 | 22 | 183 | 1.6 | 3.2 | 0.00 | 0.00 | 0.00 | 40 | 1014.9 |
| 20260504234551 | 22 | 182 | 0.0 | 3.2 | 0.00 | 0.00 | 0.00 | 41 | 1014.9 |
| 20260504234049 | 22 | 175 | 1.6 | 3.2 | 0.00 | 0.00 | 0.00 | 40 | 1014.8 |
| 20260504233543 | 22 | 184 | 3.2 | 3.2 | 0.00 | 0.00 | 0.00 | 39 | 1014.7 |
| 20260504233041 | 22 | 178 | 1.6 | 3.2 | 0.00 | 0.00 | 0.00 | 40 | 1014.8 |
| 20260504232538 | 23 | 188 | 0.0 | 1.6 | 0.00 | 0.00 | 0.00 | 38 | 1014.8 |
| 20260504232036 | 23 | 188 | 1.6 | 3.2 | 0.00 | 0.00 | 0.00 | 39 | 1014.7 |
| 20260504231532 | 23 | 184 | 0.0 | 3.2 | 0.00 | 0.00 | 0.00 | 37 | 1014.7 |
| 20260504231028 | 23 | 189 | 1.6 | 3.2 | 0.00 | 0.00 | 0.00 | 37 | 1014.7 |
| 20260504230524 | 23 | 176 | 1.6 | 3.2 | 0.00 | 0.00 | 0.00 | 37 | 1014.7 |
| 20260504230024 | 23 | 148 | 3.2 | 3.2 | 0.00 | 0.00 | 0.00 | 35 | 1014.6 |
| 20260504225520 | 23 | 178 | 0.0 | 4.8 | 0.00 | 0.00 | 0.00 | 35 | 1014.5 |
| 20260504225017 | 23 | 193 | 6.4 | 6.4 | 0.00 | 0.00 | 0.00 | 35 | 1014.7 |
| 20260504224514 | 23 | 190 | 6.4 | 6.4 | 0.00 | 0.00 | 0.00 | 34 | 1014.7 |